SANTA FE DAM RAWS NEAR IRWINDALE 1NW ( HADS current weather conditions

sailwx.info

Wind from 263 at 6 knots gusting 11

Air temperature 21.7° C
Dewpoint 4.2° C

Last reported at 2017-Mar-23 21:57 UTC.
Time now 2017-Mar-24 00:02 UTC

Location: N 34°08' W 117°57'.
View on Google Maps.

See reports from other nearby stations

  
Tides and Currents Weather Stations Pressure Air Temp Water Temp Dewpoint Dewpoint Depression Visibility Wind Speed Wind Dir Waves Ship Positions
date/time (UTC)wind fromknots sea level pressurealtimeterstation pressurevisibilityair tempwater tempwave heightnotes
2017-Mar-23 21:57 263 6 gusting 11 21.7
2017-Mar-23 20:57 160 3 gusting 10 20.6
2017-Mar-23 19:57 175 3 gusting 9 21.1
2017-Mar-23 18:57 163 3 gusting 7 20.0
2017-Mar-23 17:57 178 2 gusting 9 16.7
2017-Mar-23 16:57 116 2 gusting 8 17.2
2017-Mar-23 15:57 056 4 gusting 6 14.4
2017-Mar-23 14:57 035 3 gusting 7 11.1
2017-Mar-23 13:57 062 0 gusting 7 10.0
2017-Mar-23 12:57 079 10.0
2017-Mar-23 11:57 054 10.0
2017-Mar-23 10:57 096 10.6
2017-Mar-23 09:57 040 0 gusting 2 10.0
2017-Mar-23 08:57 175 2 gusting 3 11.1
2017-Mar-23 07:57 137 2 gusting 3 12.2
2017-Mar-23 06:57 226 11.7
2017-Mar-23 05:57 167 12.8
2017-Mar-23 04:57 173 1 gusting 4 12.2
2017-Mar-23 03:57 239 2 gusting 10 13.9
2017-Mar-23 02:57 260 5 gusting 10 14.4
2017-Mar-23 01:57 244 6 gusting 12 16.1
2017-Mar-23 00:57 257 9 gusting 17 17.2
2017-Mar-22 23:57 234 8 gusting 16 20.0
2017-Mar-22 22:57 252 8 gusting 13 20.0
2017-Mar-22 21:57 234 7 gusting 13 19.4
2017-Mar-22 20:57 234 6 gusting 14 21.1
2017-Mar-22 19:57 245 6 gusting 11 20.6
2017-Mar-22 18:57 254 6 gusting 11 18.9
2017-Mar-22 17:57 225 3 gusting 6 18.3
2017-Mar-22 16:57 220 3 gusting 6 16.7
2017-Mar-22 15:57 267 3 gusting 5 15.0
2017-Mar-22 14:57 253 3 gusting 5 14.4
2017-Mar-22 13:57 270 2 gusting 4 13.9
2017-Mar-22 12:57 227 1 gusting 3 13.9
2017-Mar-22 11:57 238 0 gusting 3 13.9
2017-Mar-22 10:57 201 13.9
2017-Mar-22 09:57 216 0 gusting 2 13.9
2017-Mar-22 08:57 219 1 gusting 3 13.9
2017-Mar-22 07:57 227 13.9
2017-Mar-22 06:57 281 13.9
2017-Mar-22 05:57 298 13.9
2017-Mar-22 04:57 224 14.4
2017-Mar-22 03:57 201 0 gusting 5 14.4
2017-Mar-22 02:57 148 1 gusting 4 14.4
2017-Mar-22 01:57 159 1 gusting 3 15.0
2017-Mar-22 00:57 167 0 gusting 2 15.0